SAS84F EKCH-EGLL

Flight info

Callsign SAS84F
Flight time 1h 29m
Altitude 40000
Route LANGO DCT RAXLU DCT JUIST DCT ABNED L980 LOGAN
Aircraft A359/H-SDE2E3GHIJ3J4J5LM1ORWXY/LB1D1

Departure

Time 2026-05-07 19:11
Airport Copenhagen Kastrup Airport (EKCH)

Arrival

Time 2026-05-07 20:40
Airport London Heathrow Airport (EGLL)
Time Latitude Longitude Altitude Speed Heading
2026-05-07 18:50 55.62505 12.65074 23 ft 0 kts 268°
2026-05-07 19:02 55.62505 12.65061 23 ft 4 kts 268°
2026-05-07 19:02 55.62506 12.65088 24 ft 4 kts 258°
2026-05-07 19:03 55.62515 12.65132 25 ft 4 kts 234°
2026-05-07 19:03 55.62533 12.65164 28 ft 4 kts 208°
2026-05-07 19:03 55.62558 12.65181 29 ft 4 kts 189°
2026-05-07 19:03 55.62582 12.65184 27 ft 1 kts 179°
2026-05-07 19:04 55.62576 12.65184 27 ft 0 kts 179°
2026-05-07 19:07 55.62555 12.65188 29 ft 6 kts 172°
2026-05-07 19:07 55.62490 12.65198 24 ft 12 kts 178°
2026-05-07 19:07 55.62385 12.65202 28 ft 17 kts 178°
2026-05-07 19:08 55.62259 12.65202 24 ft 19 kts 184°
2026-05-07 19:08 55.62136 12.65108 26 ft 19 kts 216°
2026-05-07 19:08 55.62023 12.64959 29 ft 22 kts 216°
2026-05-07 19:08 55.61889 12.64812 28 ft 23 kts 209°
2026-05-07 19:09 55.61754 12.64658 26 ft 18 kts 213°
2026-05-07 19:09 55.61656 12.64514 28 ft 19 kts 247°
2026-05-07 19:09 55.61645 12.64324 24 ft 14 kts 266°
2026-05-07 19:09 55.61637 12.64140 27 ft 14 kts 258°
2026-05-07 19:10 55.61573 12.63993 31 ft 18 kts 223°
2026-05-07 19:10 55.61410 12.63739 30 ft 57 kts 221°
2026-05-07 19:10 55.60915 12.62975 30 ft 129 kts 221°
2026-05-07 19:10 55.60112 12.61725 327 ft 160 kts 222°
2026-05-07 19:11 55.59300 12.60440 1207 ft 158 kts 224°
2026-05-07 19:11 55.58402 12.58967 1483 ft 195 kts 224°
2026-05-07 19:11 55.57327 12.57271 1831 ft 225 kts 224°
2026-05-07 19:11 55.56274 12.54991 2208 ft 255 kts 237°
2026-05-07 19:12 55.55276 12.52206 2624 ft 281 kts 239°
2026-05-07 19:12 55.54224 12.49164 3306 ft 296 kts 240°
2026-05-07 19:12 55.53152 12.46073 4162 ft 303 kts 239°
2026-05-07 19:12 55.52037 12.42878 5059 ft 309 kts 239°
2026-05-07 19:13 55.50900 12.39630 6001 ft 313 kts 239°
2026-05-07 19:13 55.49745 12.36340 6975 ft 317 kts 238°
2026-05-07 19:13 55.48572 12.33008 7919 ft 322 kts 238°
2026-05-07 19:13 55.47366 12.29585 8555 ft 340 kts 238°
2026-05-07 19:14 55.46076 12.25933 9006 ft 361 kts 238°
2026-05-07 19:14 55.44714 12.22083 9516 ft 378 kts 238°
2026-05-07 19:14 55.43320 12.18143 10514 ft 377 kts 237°
2026-05-07 19:14 55.41942 12.14260 11633 ft 374 kts 238°
2026-05-07 19:15 55.40551 12.10342 12460 ft 380 kts 238°
2026-05-07 19:15 55.39148 12.06401 13443 ft 380 kts 238°
2026-05-07 19:15 55.37743 12.02457 14347 ft 382 kts 238°
2026-05-07 19:15 55.36321 11.98472 15034 ft 389 kts 238°
2026-05-07 19:16 55.34863 11.94393 15598 ft 397 kts 238°
2026-05-07 19:16 55.33389 11.90278 16338 ft 401 kts 238°
2026-05-07 19:16 55.31893 11.86107 17047 ft 406 kts 238°
2026-05-07 19:16 55.30389 11.81920 17999 ft 404 kts 238°
2026-05-07 19:17 55.28891 11.77760 18965 ft 402 kts 238°
2026-05-07 19:17 55.27388 11.73590 19676 ft 407 kts 238°
2026-05-07 19:17 55.26045 11.69849 20225 ft 412 kts 239°
2026-05-07 19:17 55.24539 11.65642 21038 ft 412 kts 238°
2026-05-07 19:18 55.22986 11.61430 21936 ft 411 kts 238°
2026-05-07 19:18 55.21423 11.57232 22784 ft 412 kts 237°
2026-05-07 19:18 55.19863 11.53040 23668 ft 411 kts 238°
2026-05-07 19:18 55.18304 11.48847 24417 ft 410 kts 238°
2026-05-07 19:19 55.16749 11.44663 25139 ft 410 kts 237°
2026-05-07 19:19 55.15194 11.40483 25836 ft 410 kts 237°
2026-05-07 19:19 55.13640 11.36312 26550 ft 409 kts 237°
2026-05-07 19:19 55.12085 11.32143 27264 ft 409 kts 237°
2026-05-07 19:20 55.10530 11.27981 27843 ft 412 kts 237°
2026-05-07 19:20 55.08945 11.23743 28128 ft 422 kts 237°
2026-05-07 19:20 55.07315 11.19395 28395 ft 432 kts 237°
2026-05-07 19:20 55.05650 11.14961 28638 ft 442 kts 237°
2026-05-07 19:21 55.03943 11.10424 28893 ft 452 kts 237°
2026-05-07 19:21 55.02197 11.05791 29143 ft 462 kts 237°
2026-05-07 19:21 55.00415 11.01072 29370 ft 472 kts 237°
2026-05-07 19:21 54.98590 10.96249 29609 ft 481 kts 237°
2026-05-07 19:22 54.96729 10.91340 29888 ft 489 kts 237°
2026-05-07 19:22 54.94842 10.86372 30119 ft 496 kts 237°
2026-05-07 19:22 54.92919 10.81331 30321 ft 503 kts 236°
2026-05-07 19:22 54.90971 10.76322 30533 ft 509 kts 236°
2026-05-07 19:23 54.88971 10.71241 30862 ft 510 kts 236°
2026-05-07 19:23 54.86962 10.66162 31225 ft 511 kts 236°
2026-05-07 19:23 54.84949 10.61079 31581 ft 511 kts 235°
2026-05-07 19:23 54.82932 10.55987 31936 ft 511 kts 236°
2026-05-07 19:24 54.80918 10.50903 32299 ft 511 kts 235°
2026-05-07 19:24 54.78898 10.45807 32529 ft 514 kts 235°
2026-05-07 19:24 54.76868 10.40695 32815 ft 515 kts 235°
2026-05-07 19:24 54.74836 10.35587 33192 ft 514 kts 235°
2026-05-07 19:25 54.72809 10.30497 33555 ft 514 kts 235°
2026-05-07 19:25 54.70925 10.25239 33871 ft 514 kts 240°
2026-05-07 19:25 54.69141 10.19873 34192 ft 514 kts 240°
2026-05-07 19:25 54.67389 10.14496 34499 ft 512 kts 240°
2026-05-07 19:26 54.65660 10.09136 34922 ft 509 kts 241°
2026-05-07 19:26 54.63945 10.03808 35334 ft 505 kts 241°
2026-05-07 19:26 54.62239 9.98531 35721 ft 503 kts 240°
2026-05-07 19:26 54.60473 9.93350 36148 ft 498 kts 238°
2026-05-07 19:27 54.58678 9.88331 36972 ft 486 kts 238°
2026-05-07 19:27 54.56905 9.83455 37802 ft 475 kts 238°
2026-05-07 19:27 54.55162 9.78674 38419 ft 469 kts 238°
2026-05-07 19:27 54.53435 9.73918 38797 ft 467 kts 238°
2026-05-07 19:28 54.51715 9.69162 39016 ft 467 kts 238°
2026-05-07 19:28 54.50023 9.64467 39166 ft 469 kts 238°
2026-05-07 19:28 54.48303 9.59687 39359 ft 469 kts 238°
2026-05-07 19:28 54.46590 9.54926 39581 ft 469 kts 238°
2026-05-07 19:29 54.44869 9.50152 39766 ft 469 kts 238°
2026-05-07 19:29 54.43147 9.45383 39974 ft 469 kts 238°
2026-05-07 19:29 54.41426 9.40625 40103 ft 470 kts 238°
2026-05-07 19:29 54.39693 9.35848 40133 ft 471 kts 238°
2026-05-07 19:30 54.36208 9.26270 40127 ft 477 kts 238°
2026-05-07 19:30 54.32675 9.16597 40109 ft 485 kts 238°
2026-05-07 19:31 54.29044 9.06696 40130 ft 490 kts 238°
2026-05-07 19:31 54.25405 8.96812 40133 ft 491 kts 237°
2026-05-07 19:32 54.21782 8.87011 40125 ft 491 kts 237°
2026-05-07 19:32 54.18124 8.77155 40115 ft 491 kts 237°
2026-05-07 19:33 54.14463 8.67328 40124 ft 490 kts 237°
2026-05-07 19:33 54.10797 8.57529 40123 ft 490 kts 237°
2026-05-07 19:34 54.07141 8.47794 40121 ft 479 kts 237°
2026-05-07 19:34 54.03584 8.38357 40115 ft 470 kts 237°
2026-05-07 19:35 54.00052 8.29024 40130 ft 469 kts 237°
2026-05-07 19:35 53.96510 8.19699 40107 ft 469 kts 237°
2026-05-07 19:36 53.92969 8.10412 40123 ft 468 kts 237°
2026-05-07 19:36 53.90023 8.02712 40123 ft 468 kts 237°
2026-05-07 19:37 53.85897 7.91966 40118 ft 468 kts 237°
2026-05-07 19:37 53.82343 7.82745 40108 ft 468 kts 236°
2026-05-07 19:38 53.79353 7.75017 40103 ft 468 kts 236°
2026-05-07 19:38 53.75778 7.65804 40102 ft 469 kts 236°
2026-05-07 19:39 53.72193 7.56602 40113 ft 468 kts 236°
2026-05-07 19:39 53.68633 7.47497 40117 ft 468 kts 236°
2026-05-07 19:40 53.65041 7.38343 40117 ft 467 kts 236°
2026-05-07 19:40 53.61446 7.29213 40116 ft 467 kts 236°
2026-05-07 19:41 53.57842 7.20097 40114 ft 468 kts 236°
2026-05-07 19:41 53.54228 7.10986 40113 ft 468 kts 236°
2026-05-07 19:42 53.50608 7.01895 40104 ft 467 kts 236°
2026-05-07 19:42 53.46983 6.92821 40104 ft 467 kts 236°
2026-05-07 19:43 53.43374 6.83823 40128 ft 467 kts 236°
2026-05-07 19:43 53.39743 6.74799 40128 ft 467 kts 236°
2026-05-07 19:44 53.36102 6.65784 40105 ft 467 kts 236°
2026-05-07 19:44 53.32451 6.56776 40105 ft 467 kts 236°
2026-05-07 19:45 53.28798 6.47796 40111 ft 467 kts 236°
2026-05-07 19:45 53.25134 6.38822 40106 ft 467 kts 235°
2026-05-07 19:46 53.21472 6.29884 40103 ft 467 kts 235°
2026-05-07 19:46 53.17818 6.20996 40107 ft 467 kts 235°
2026-05-07 19:47 53.14132 6.12062 40110 ft 469 kts 235°
2026-05-07 19:47 53.10386 6.03016 40107 ft 479 kts 235°
2026-05-07 19:48 53.06572 5.93838 40100 ft 485 kts 235°
2026-05-07 19:48 53.02716 5.84591 40100 ft 488 kts 235°
2026-05-07 19:49 52.98836 5.75321 40096 ft 488 kts 235°
2026-05-07 19:49 52.94955 5.66082 40103 ft 488 kts 235°
2026-05-07 19:50 52.91066 5.56860 40098 ft 488 kts 235°
2026-05-07 19:50 52.87167 5.47645 40092 ft 488 kts 235°
2026-05-07 19:51 52.83261 5.38448 40092 ft 488 kts 234°
2026-05-07 19:51 52.79354 5.29283 40093 ft 488 kts 234°
2026-05-07 19:52 52.75462 5.20184 40096 ft 488 kts 234°
2026-05-07 19:52 52.71539 5.11047 40095 ft 488 kts 234°
2026-05-07 19:53 52.67606 5.01919 40097 ft 488 kts 234°
2026-05-07 19:53 52.63666 4.92808 40089 ft 488 kts 234°
2026-05-07 19:54 52.59718 4.83710 40083 ft 488 kts 234°
2026-05-07 19:54 52.55766 4.74634 40081 ft 488 kts 234°
2026-05-07 19:55 52.51813 4.65590 40081 ft 488 kts 234°
2026-05-07 19:55 52.47850 4.56554 40079 ft 488 kts 234°
2026-05-07 19:56 52.43881 4.47538 40074 ft 488 kts 234°
2026-05-07 19:56 52.39909 4.38545 40082 ft 487 kts 234°
2026-05-07 19:57 52.35953 4.29619 40085 ft 487 kts 234°
2026-05-07 19:57 52.31972 4.20669 40101 ft 487 kts 234°
2026-05-07 19:58 52.28424 4.12720 40088 ft 487 kts 234°
2026-05-07 19:58 52.24426 4.03790 40089 ft 487 kts 234°
2026-05-07 19:59 52.20423 3.94882 40078 ft 487 kts 234°
2026-05-07 19:59 52.16411 3.85984 40090 ft 487 kts 233°
2026-05-07 20:00 52.12396 3.77109 40083 ft 487 kts 233°
2026-05-07 20:00 52.08372 3.68247 40098 ft 487 kts 233°
2026-05-07 20:01 52.04367 3.59456 40081 ft 487 kts 233°
2026-05-07 20:01 52.00328 3.50620 40080 ft 487 kts 233°
2026-05-07 20:02 51.96296 3.41830 40096 ft 479 kts 233°
2026-05-07 20:02 51.92378 3.33318 40076 ft 466 kts 233°
2026-05-07 20:03 51.88515 3.24937 40088 ft 464 kts 234°
2026-05-07 20:03 51.85460 3.15789 40098 ft 463 kts 250°
2026-05-07 20:04 51.83998 3.05644 40086 ft 465 kts 261°
2026-05-07 20:04 51.83614 3.00453 39973 ft 465 kts 263°
2026-05-07 20:04 51.83313 2.95226 39745 ft 468 kts 264°
2026-05-07 20:05 51.83036 2.90031 39539 ft 469 kts 264°
2026-05-07 20:05 51.82746 2.84783 39254 ft 467 kts 264°
2026-05-07 20:05 51.82438 2.79564 38724 ft 466 kts 263°
2026-05-07 20:05 51.82109 2.74359 38001 ft 465 kts 263°
2026-05-07 20:06 51.81766 2.69172 37391 ft 463 kts 263°
2026-05-07 20:06 51.81416 2.63982 37022 ft 465 kts 263°
2026-05-07 20:06 51.81429 2.58752 36694 ft 468 kts 277°
2026-05-07 20:06 51.82253 2.53674 36342 ft 469 kts 289°
2026-05-07 20:07 51.83474 2.48786 35983 ft 469 kts 291°
2026-05-07 20:07 51.84771 2.43934 35640 ft 469 kts 291°
2026-05-07 20:07 51.86076 2.39101 35305 ft 467 kts 291°
2026-05-07 20:07 51.87373 2.34300 34959 ft 464 kts 291°
2026-05-07 20:08 51.88660 2.29536 34634 ft 460 kts 291°
2026-05-07 20:08 51.89934 2.24819 34295 ft 456 kts 291°
2026-05-07 20:08 51.91197 2.20144 33941 ft 451 kts 291°
2026-05-07 20:08 51.92446 2.15512 33549 ft 444 kts 291°
2026-05-07 20:09 51.93403 2.10826 33148 ft 433 kts 278°
2026-05-07 20:09 51.93493 2.06042 32771 ft 422 kts 262°
2026-05-07 20:09 51.92690 2.01525 32407 ft 414 kts 245°
2026-05-07 20:10 51.88861 1.94938 31664 ft 411 kts 210°
2026-05-07 20:10 51.86178 1.93404 31315 ft 415 kts 193°
2026-05-07 20:10 51.83280 1.93089 30968 ft 417 kts 183°
2026-05-07 20:10 51.80389 1.93176 30608 ft 416 kts 181°
2026-05-07 20:11 51.77497 1.93318 30241 ft 415 kts 181°
2026-05-07 20:11 51.74617 1.93469 29848 ft 413 kts 181°
2026-05-07 20:11 51.71753 1.93618 29443 ft 410 kts 181°
2026-05-07 20:11 51.68904 1.93763 29039 ft 408 kts 181°
2026-05-07 20:12 51.66077 1.93902 28658 ft 406 kts 181°
2026-05-07 20:12 51.63263 1.94029 28259 ft 403 kts 182°
2026-05-07 20:12 51.60512 1.93500 27888 ft 394 kts 199°
2026-05-07 20:12 51.58079 1.91637 27517 ft 385 kts 218°
2026-05-07 20:13 51.56200 1.88648 27138 ft 379 kts 235°
2026-05-07 20:13 51.54711 1.85164 26966 ft 379 kts 239°
2026-05-07 20:13 51.53499 1.81429 26784 ft 375 kts 247°
2026-05-07 20:13 51.52733 1.77442 26149 ft 376 kts 259°
2026-05-07 20:14 51.52592 1.73253 25606 ft 376 kts 275°
2026-05-07 20:14 51.53153 1.69170 25202 ft 373 kts 285°
2026-05-07 20:14 51.53937 1.65204 24743 ft 371 kts 286°
2026-05-07 20:14 51.54727 1.61331 24284 ft 369 kts 286°
2026-05-07 20:15 51.55525 1.57429 23829 ft 367 kts 286°
2026-05-07 20:15 51.56317 1.53543 23315 ft 365 kts 286°
2026-05-07 20:15 51.57077 1.49679 22771 ft 362 kts 283°
2026-05-07 20:15 51.57716 1.45760 22147 ft 362 kts 283°
2026-05-07 20:16 51.58315 1.41820 21540 ft 362 kts 282°
2026-05-07 20:16 51.58887 1.37885 20993 ft 361 kts 281°
2026-05-07 20:16 51.59443 1.33963 20486 ft 358 kts 281°
2026-05-07 20:16 51.59989 1.30067 19981 ft 356 kts 281°
2026-05-07 20:17 51.60529 1.26194 19491 ft 354 kts 281°
2026-05-07 20:17 51.61066 1.22351 19036 ft 351 kts 281°
2026-05-07 20:17 51.61598 1.18539 18582 ft 348 kts 281°
2026-05-07 20:17 51.62127 1.14755 18091 ft 345 kts 281°
2026-05-07 20:18 51.62650 1.11009 17627 ft 341 kts 281°
2026-05-07 20:18 51.63162 1.07342 17205 ft 339 kts 281°
2026-05-07 20:18 51.63676 1.03647 17051 ft 338 kts 281°
2026-05-07 20:18 51.64187 0.99955 16835 ft 338 kts 281°
2026-05-07 20:19 51.64698 0.96262 16414 ft 336 kts 281°
2026-05-07 20:19 51.65204 0.92604 16065 ft 334 kts 281°
2026-05-07 20:19 51.65711 0.88949 15826 ft 334 kts 281°
2026-05-07 20:19 51.66211 0.85295 15612 ft 333 kts 281°
2026-05-07 20:20 51.66707 0.81659 15413 ft 332 kts 280°
2026-05-07 20:20 51.67201 0.78037 15190 ft 331 kts 280°
2026-05-07 20:20 51.67694 0.74418 14992 ft 330 kts 280°
2026-05-07 20:20 51.68181 0.70806 14771 ft 329 kts 280°
2026-05-07 20:21 51.68401 0.67155 14573 ft 326 kts 266°
2026-05-07 20:21 51.68210 0.63525 14375 ft 325 kts 262°
2026-05-07 20:21 51.67941 0.59924 14154 ft 324 kts 261°
2026-05-07 20:21 51.67671 0.56328 13971 ft 323 kts 261°
2026-05-07 20:22 51.67493 0.53949 13857 ft 323 kts 261°
2026-05-07 20:22 51.67145 0.49232 13626 ft 313 kts 262°
2026-05-07 20:22 51.66894 0.45801 13368 ft 304 kts 262°
2026-05-07 20:22 51.66648 0.42467 13150 ft 295 kts 262°
2026-05-07 20:23 51.66405 0.39187 12970 ft 294 kts 261°
2026-05-07 20:23 51.66240 0.36973 12838 ft 294 kts 262°
2026-05-07 20:23 51.66001 0.33766 12661 ft 293 kts 262°
2026-05-07 20:23 51.65758 0.30499 12508 ft 285 kts 262°
2026-05-07 20:24 51.65529 0.27430 12339 ft 274 kts 262°
2026-05-07 20:24 51.65308 0.24484 12148 ft 266 kts 261°
2026-05-07 20:24 51.65172 0.22674 11983 ft 262 kts 261°
2026-05-07 20:24 51.64978 0.20105 11755 ft 257 kts 261°
2026-05-07 20:25 51.64764 0.17275 11506 ft 253 kts 261°
2026-05-07 20:25 51.64551 0.14470 11250 ft 251 kts 261°
2026-05-07 20:25 51.64336 0.11687 11027 ft 251 kts 261°
2026-05-07 20:25 51.64115 0.08905 10794 ft 250 kts 261°
2026-05-07 20:26 51.63895 0.06135 10548 ft 249 kts 261°
2026-05-07 20:26 51.63669 0.03373 10305 ft 249 kts 261°
2026-05-07 20:26 51.63442 0.00618 10064 ft 247 kts 261°
2026-05-07 20:26 51.63214 -0.02115 9870 ft 246 kts 261°
2026-05-07 20:27 51.62976 -0.04828 9730 ft 244 kts 261°
2026-05-07 20:27 51.62736 -0.07531 9593 ft 243 kts 261°
2026-05-07 20:27 51.62496 -0.10221 9455 ft 243 kts 261°
2026-05-07 20:27 51.62276 -0.12913 9317 ft 243 kts 265°
2026-05-07 20:28 51.62248 -0.15631 9148 ft 243 kts 270°
2026-05-07 20:28 51.62289 -0.18347 8937 ft 242 kts 271°
2026-05-07 20:28 51.62337 -0.21058 8720 ft 242 kts 271°
2026-05-07 20:28 51.62383 -0.23760 8508 ft 242 kts 271°
2026-05-07 20:29 51.62427 -0.26465 8303 ft 241 kts 271°
2026-05-07 20:29 51.62471 -0.29131 8106 ft 241 kts 271°
2026-05-07 20:29 51.62512 -0.31825 7897 ft 241 kts 271°
2026-05-07 20:29 51.62552 -0.34514 7706 ft 240 kts 271°
2026-05-07 20:30 51.62592 -0.37199 7590 ft 240 kts 271°
2026-05-07 20:30 51.62600 -0.39883 7496 ft 239 kts 267°
2026-05-07 20:30 51.62510 -0.42554 7438 ft 239 kts 266°
2026-05-07 20:30 51.62402 -0.45215 7385 ft 239 kts 266°
2026-05-07 20:31 51.62289 -0.47889 7327 ft 239 kts 266°
2026-05-07 20:31 51.62177 -0.50551 7284 ft 239 kts 265°
2026-05-07 20:31 51.62064 -0.53215 7176 ft 239 kts 266°
2026-05-07 20:31 51.61951 -0.55880 6886 ft 238 kts 266°
2026-05-07 20:32 51.61836 -0.58541 6592 ft 238 kts 266°
2026-05-07 20:32 51.61723 -0.61156 6277 ft 237 kts 265°
2026-05-07 20:32 51.61591 -0.63803 5976 ft 237 kts 262°
2026-05-07 20:32 51.61202 -0.66378 5662 ft 237 kts 252°
2026-05-07 20:33 51.60605 -0.68846 5408 ft 237 kts 243°
2026-05-07 20:33 51.59843 -0.71197 5248 ft 237 kts 241°
2026-05-07 20:33 51.59057 -0.73533 5091 ft 237 kts 241°
2026-05-07 20:33 51.58268 -0.75862 4942 ft 237 kts 240°
2026-05-07 20:34 51.57482 -0.78186 4785 ft 237 kts 240°
2026-05-07 20:34 51.56678 -0.80490 4653 ft 237 kts 236°
2026-05-07 20:34 51.55452 -0.82204 4552 ft 234 kts 203°
2026-05-07 20:34 51.53889 -0.82795 4455 ft 231 kts 184°
2026-05-07 20:35 51.52273 -0.82951 4381 ft 234 kts 181°
2026-05-07 20:35 51.50729 -0.82750 4278 ft 219 kts 160°
2026-05-07 20:35 51.49514 -0.81432 4106 ft 208 kts 130°
2026-05-07 20:35 51.48661 -0.79621 3983 ft 199 kts 123°
2026-05-07 20:36 51.47909 -0.77809 3776 ft 192 kts 122°
2026-05-07 20:36 51.47340 -0.75931 3520 ft 186 kts 96°
2026-05-07 20:36 51.47450 -0.73906 3289 ft 182 kts 82°
2026-05-07 20:36 51.47575 -0.71890 3018 ft 181 kts 88°
2026-05-07 20:37 51.47596 -0.69866 2763 ft 181 kts 91°
2026-05-07 20:37 51.47602 -0.67845 2530 ft 179 kts 90°
2026-05-07 20:37 51.47617 -0.65870 2269 ft 174 kts 90°
2026-05-07 20:37 51.47631 -0.63960 2035 ft 169 kts 91°
2026-05-07 20:38 51.47643 -0.62109 1802 ft 164 kts 91°
2026-05-07 20:38 51.47654 -0.60300 1576 ft 161 kts 91°
2026-05-07 20:38 51.47666 -0.58506 1367 ft 158 kts 91°
2026-05-07 20:38 51.47678 -0.56781 1146 ft 150 kts 91°
2026-05-07 20:39 51.47688 -0.55170 942 ft 142 kts 91°
2026-05-07 20:39 51.47698 -0.53638 749 ft 133 kts 91°
2026-05-07 20:39 51.47723 -0.52161 582 ft 131 kts 88°
2026-05-07 20:39 51.47741 -0.50690 400 ft 131 kts 92°
2026-05-07 20:40 51.47742 -0.49251 237 ft 130 kts 91°
2026-05-07 20:40 51.47756 -0.47802 98 ft 127 kts 91°
2026-05-07 20:40 51.47757 -0.46598 98 ft 68 kts 89°
2026-05-07 20:40 51.47752 -0.46222 96 ft 6 kts 112°
2026-05-07 20:41 51.47730 -0.46174 97 ft 9 kts 134°
2026-05-07 20:41 51.47653 -0.46091 96 ft 16 kts 146°
2026-05-07 20:41 51.47595 -0.45962 97 ft 15 kts 115°
2026-05-07 20:41 51.47586 -0.45839 95 ft 10 kts 79°
2026-05-07 20:42 51.47594 -0.45717 95 ft 12 kts 90°
2026-05-07 20:42 51.47593 -0.45565 96 ft 15 kts 90°
2026-05-07 20:42 51.47595 -0.45382 96 ft 18 kts 89°
2026-05-07 20:42 51.47597 -0.45175 92 ft 20 kts 89°
2026-05-07 20:43 51.47599 -0.44941 95 ft 22 kts 91°
2026-05-07 20:43 51.47599 -0.44723 93 ft 0 kts 91°
2026-05-07 20:43 51.47598 -0.44701 93 ft 7 kts 96°
2026-05-07 20:43 51.47559 -0.44650 96 ft 8 kts 175°
2026-05-07 20:44 51.47512 -0.44615 95 ft 9 kts 137°
2026-05-07 20:44 51.47451 -0.44562 96 ft 11 kts 173°
2026-05-07 20:44 51.47361 -0.44559 92 ft 14 kts 180°
2026-05-07 20:44 51.47251 -0.44559 92 ft 17 kts 180°
2026-05-07 20:45 51.47122 -0.44558 92 ft 20 kts 180°
2026-05-07 20:45 51.46974 -0.44555 94 ft 22 kts 179°
2026-05-07 20:45 51.46812 -0.44556 92 ft 24 kts 180°
2026-05-07 20:45 51.46762 -0.44565 95 ft 3 kts 207°
2026-05-07 20:46 51.46752 -0.44705 94 ft 17 kts 271°
2026-05-07 20:46 51.46752 -0.44804 93 ft 0 kts 270°
2026-05-07 20:47 51.46752 -0.44806 93 ft 0 kts 270°
2026-05-07 20:47 51.46750 -0.44811 93 ft 3 kts 249°
2026-05-07 20:47 51.46725 -0.44836 96 ft 6 kts 212°
2026-05-07 20:47 51.46693 -0.44839 97 ft 5 kts 162°
2026-05-07 20:48 51.46670 -0.44803 97 ft 3 kts 107°
2026-05-07 20:48 51.46663 -0.44748 94 ft 7 kts 99°
2026-05-07 20:48 51.46664 -0.44658 93 ft 11 kts 88°
2026-05-07 20:48 51.46702 -0.44559 94 ft 12 kts 13°
2026-05-07 20:49 51.46792 -0.44553 96 ft 15 kts
2026-05-07 20:49 51.46900 -0.44556 92 ft 11 kts 359°
2026-05-07 20:49 51.46931 -0.44607 95 ft 7 kts 289°
2026-05-07 20:49 51.46938 -0.44667 95 ft 0 kts 268°
2026-05-07 20:50 51.46937 -0.44694 95 ft 5 kts 269°
2026-05-07 20:50 51.46937 -0.44699 95 ft 0 kts 269°